Time,TemperatureF,DewpointF,PressureIn,WindDirection,WindDirectionDegrees,WindSpeedMPH,WindSpeedGustMPH,Humidity,HourlyPrecipIn,Conditions,Clouds,dailyrainin,SoftwareType,DateUTC
2016-02-06 00:03:00,45.0,42.0,30.47,NNW,337,0.0,0.0,90,-99.99,,,-99.99,,2016-02-06 08:03:00,
2016-02-06 00:23:00,45.0,42.0,30.48,WNW,292,0.0,0.0,90,-99.99,,,-99.99,,2016-02-06 08:23:00,
2016-02-06 00:33:00,45.0,42.0,30.48,NNW,337,0.0,0.0,90,-99.99,,,-99.99,,2016-02-06 08:33:00,
2016-02-06 00:44:00,45.0,42.0,30.48,NW,315,0.0,0.0,90,-99.99,,,-99.99,,2016-02-06 08:44:00,
2016-02-06 00:53:00,45.0,42.0,30.48,NW,315,0.0,1.0,90,-99.99,,,-99.99,,2016-02-06 08:53:00,
2016-02-06 01:03:00,45.0,42.0,30.48,West,270,0.0,0.0,90,-99.99,,,-99.99,,2016-02-06 09:03:00,
2016-02-06 01:13:00,45.0,42.0,30.48,NNW,337,1.0,1.0,90,-99.99,,,-99.99,,2016-02-06 09:13:00,
2016-02-06 01:33:00,45.0,42.0,30.49,NNW,337,0.0,0.0,90,-99.99,,,-99.99,,2016-02-06 09:33:00,
2016-02-06 01:43:00,45.0,42.0,30.49,NW,315,0.0,0.0,90,-99.99,,,-99.99,,2016-02-06 09:43:00,
2016-02-06 02:03:00,45.0,42.0,30.49,NW,315,0.0,1.0,90,-99.99,,,-99.99,,2016-02-06 10:03:00,
2016-02-06 02:13:00,45.0,42.0,30.50,WNW,292,1.0,1.0,90,-99.99,,,-99.99,,2016-02-06 10:13:00,
2016-02-06 02:23:00,45.0,42.0,30.51,WNW,292,0.0,1.0,90,-99.99,,,-99.99,,2016-02-06 10:23:00,
2016-02-06 02:36:00,45.0,42.0,30.51,NNW,337,0.0,0.0,90,-99.99,,,-99.99,,2016-02-06 10:36:00,
2016-02-06 02:43:00,45.0,42.0,30.51,NNW,337,0.0,0.0,90,-99.99,,,-99.99,,2016-02-06 10:43:00,
2016-02-06 03:03:00,45.0,42.0,30.51,NW,315,0.0,0.0,90,-99.99,,,-99.99,,2016-02-06 11:03:00,
2016-02-06 03:13:00,45.0,42.0,30.52,NW,315,1.0,1.0,90,-99.99,,,-99.99,,2016-02-06 11:13:00,
2016-02-06 03:23:00,45.0,42.0,30.52,WNW,292,0.0,0.0,90,-99.99,,,-99.99,,2016-02-06 11:23:00,
2016-02-06 03:33:00,45.0,42.0,30.53,NNW,337,0.0,0.0,90,-99.99,,,-99.99,,2016-02-06 11:33:00,
2016-02-06 03:43:00,45.0,42.0,30.54,NW,315,0.0,0.0,90,-99.99,,,-99.99,,2016-02-06 11:43:00,
2016-02-06 03:53:00,44.0,41.0,30.54,NNW,337,0.0,1.0,90,-99.99,,,-99.99,,2016-02-06 11:53:00,
2016-02-06 04:03:00,44.0,41.0,30.54,NNW,337,0.0,0.0,90,-99.99,,,-99.99,,2016-02-06 12:03:00,
2016-02-06 04:13:00,44.0,41.0,30.55,NNW,337,1.0,1.0,90,-99.99,,,-99.99,,2016-02-06 12:13:00,
2016-02-06 04:23:00,44.0,41.0,30.54,NNE,22,0.0,0.0,90,-99.99,,,-99.99,,2016-02-06 12:23:00,
2016-02-06 04:33:00,44.0,41.0,30.55,NNW,337,0.0,0.0,90,-99.99,,,-99.99,,2016-02-06 12:33:00,
2016-02-06 04:44:00,44.0,41.0,30.55,NNW,337,0.0,0.0,90,-99.99,,,-99.99,,2016-02-06 12:44:00,
2016-02-06 04:54:00,44.0,41.0,30.55,NNW,337,0.0,0.0,90,-99.99,,,-99.99,,2016-02-06 12:54:00,
2016-02-06 05:03:00,44.0,41.0,30.56,NNW,337,0.0,0.0,90,-99.99,,,-99.99,,2016-02-06 13:03:00,
2016-02-06 05:13:00,43.0,40.0,30.55,NNW,337,0.0,0.0,90,-99.99,,,-99.99,,2016-02-06 13:13:00,
2016-02-06 05:23:00,43.0,40.0,30.55,NNW,337,0.0,0.0,90,-99.99,,,-99.99,,2016-02-06 13:23:00,
2016-02-06 05:34:00,43.0,40.0,30.55,NW,315,0.0,0.0,90,-99.99,,,-99.99,,2016-02-06 13:34:00,
2016-02-06 05:43:00,43.0,40.0,30.56,NW,315,0.0,0.0,90,-99.99,,,-99.99,,2016-02-06 13:43:00,
2016-02-06 05:54:00,43.0,40.0,30.55,NW,315,0.0,0.0,90,-99.99,,,-99.99,,2016-02-06 13:54:00,
2016-02-06 06:03:00,42.0,39.0,30.55,NW,315,0.0,0.0,90,-99.99,,,-99.99,,2016-02-06 14:03:00,
2016-02-06 06:13:00,42.0,39.0,30.55,NNW,337,0.0,0.0,90,-99.99,,,-99.99,,2016-02-06 14:13:00,
2016-02-06 06:23:00,42.0,39.0,30.55,NNW,337,0.0,0.0,90,-99.99,,,-99.99,,2016-02-06 14:23:00,
2016-02-06 06:33:00,42.0,39.0,30.56,NNW,337,0.0,0.0,90,-99.99,,,-99.99,,2016-02-06 14:33:00,
2016-02-06 06:44:00,42.0,39.0,30.56,NNW,337,0.0,0.0,90,-99.99,,,-99.99,,2016-02-06 14:44:00,
2016-02-06 06:54:00,42.0,39.0,30.56,North,0,0.0,0.0,90,-99.99,,,-99.99,,2016-02-06 14:54:00,
2016-02-06 07:03:00,42.0,39.0,30.56,NNE,22,0.0,0.0,90,-99.99,,,-99.99,,2016-02-06 15:03:00,
2016-02-06 07:13:00,42.0,39.0,30.56,NNW,337,0.0,0.0,90,-99.99,,,-99.99,,2016-02-06 15:13:00,
2016-02-06 07:23:00,42.0,39.0,30.57,NNW,337,0.0,0.0,90,-99.99,,,-99.99,,2016-02-06 15:23:00,
2016-02-06 07:34:00,42.0,39.0,30.57,North,0,0.0,0.0,90,-99.99,,,-99.99,,2016-02-06 15:34:00,
2016-02-06 07:44:00,42.0,39.0,30.58,North,0,0.0,0.0,90,-99.99,,,-99.99,,2016-02-06 15:44:00,
2016-02-06 08:04:00,42.0,39.0,30.57,NNW,337,0.0,0.0,90,-99.99,,,-99.99,,2016-02-06 16:04:00,
2016-02-06 08:13:00,42.0,39.0,30.57,East,90,0.0,0.0,90,-99.99,,,-99.99,,2016-02-06 16:13:00,
2016-02-06 08:24:00,43.0,40.0,30.58,SSE,157,0.0,0.0,90,-99.99,,,-99.99,,2016-02-06 16:24:00,
2016-02-06 08:34:00,43.0,40.0,30.58,North,0,0.0,0.0,90,-99.99,,,-99.99,,2016-02-06 16:34:00,
2016-02-06 08:54:00,43.0,40.0,30.58,SSE,157,0.0,0.0,90,-99.99,,,-99.99,,2016-02-06 16:54:00,
2016-02-06 09:14:00,44.0,41.0,30.58,SE,135,0.0,0.0,90,-99.99,,,-99.99,,2016-02-06 17:14:00,
2016-02-06 09:23:00,44.0,41.0,30.58,SE,135,0.0,0.0,90,-99.99,,,-99.99,,2016-02-06 17:23:00,
2016-02-06 09:34:00,45.0,42.0,30.58,SSE,157,0.0,0.0,90,-99.99,,,-99.99,,2016-02-06 17:34:00,
2016-02-06 09:44:00,45.0,42.0,30.59,SSE,157,0.0,0.0,90,-99.99,,,-99.99,,2016-02-06 17:44:00,
2016-02-06 10:03:00,46.0,43.0,30.59,ESE,112,0.0,0.0,90,-99.99,,,-99.99,,2016-02-06 18:03:00,
2016-02-06 10:13:00,47.0,44.0,30.59,SSE,157,0.0,0.0,90,-99.99,,,-99.99,,2016-02-06 18:13:00,
2016-02-06 10:24:00,47.0,44.0,30.59,SSE,157,0.0,0.0,90,-99.99,,,-99.99,,2016-02-06 18:24:00,
2016-02-06 10:34:00,47.0,44.0,30.60,ESE,112,0.0,0.0,90,-99.99,,,-99.99,,2016-02-06 18:34:00,
2016-02-06 10:54:00,47.0,44.0,30.61,SSE,157,0.0,0.0,90,-99.99,,,-99.99,,2016-02-06 18:54:00,
2016-02-06 11:12:00,49.0,46.0,30.61,SSE,157,0.0,-999.0,90,-99.99,,,-99.99,,2016-02-06 19:12:00,
2016-02-06 11:23:00,49.0,46.0,30.60,NNW,337,0.0,0.0,90,-99.99,,,-99.99,,2016-02-06 19:23:00,
2016-02-06 11:34:00,50.0,47.0,30.60,SE,135,0.0,0.0,90,-99.99,,,-99.99,,2016-02-06 19:34:00,
2016-02-06 11:44:00,50.0,47.0,30.60,SE,135,0.0,0.0,90,-99.99,,,-99.99,,2016-02-06 19:44:00,
2016-02-06 11:54:00,50.0,47.0,30.60,SE,135,0.0,0.0,90,-99.99,,,-99.99,,2016-02-06 19:54:00,
2016-02-06 12:13:00,51.0,48.0,30.58,SSE,157,0.0,-999.0,88,-99.99,,,-99.99,,2016-02-06 20:13:00,
2016-02-06 12:24:00,52.0,49.0,30.59,ENE,67,0.0,0.0,88,-99.99,,,-99.99,,2016-02-06 20:24:00,
2016-02-06 12:36:00,52.0,48.0,30.58,SE,135,0.0,0.0,87,-99.99,,,-99.99,,2016-02-06 20:36:00,
2016-02-06 12:44:00,52.0,48.0,30.57,SSE,157,0.0,0.0,86,-99.99,,,-99.99,,2016-02-06 20:44:00,
2016-02-06 13:03:00,53.0,49.0,30.57,SSE,157,1.0,1.0,85,-99.99,,,-99.99,,2016-02-06 21:03:00,
2016-02-06 14:03:00,53.0,47.0,30.55,ENE,67,0.0,0.0,79,-99.99,,,-99.99,,2016-02-06 22:03:00,
2016-02-06 14:24:00,53.0,46.0,30.54,SE,135,0.0,0.0,76,-99.99,,,-99.99,,2016-02-06 22:24:00,
2016-02-06 15:03:00,53.0,46.0,30.55,SE,135,0.0,0.0,76,-99.99,,,-99.99,,2016-02-06 23:03:00,
2016-02-06 15:13:00,52.0,45.0,30.54,ESE,112,0.0,-999.0,77,-99.99,,,-99.99,,2016-02-06 23:13:00,
2016-02-06 15:23:00,52.0,45.0,30.54,East,90,0.0,0.0,77,-99.99,,,-99.99,,2016-02-06 23:23:00,
2016-02-06 15:33:00,52.0,45.0,30.54,ESE,112,0.0,0.0,77,-99.99,,,-99.99,,2016-02-06 23:33:00,
2016-02-06 15:43:00,52.0,45.0,30.54,SE,135,1.0,1.0,76,-99.99,,,-99.99,,2016-02-06 23:43:00,
2016-02-06 15:53:00,52.0,45.0,30.54,SE,135,0.0,1.0,77,-99.99,,,-99.99,,2016-02-06 23:53:00,
2016-02-06 16:13:00,51.0,45.0,30.54,ESE,112,0.0,0.0,79,-99.99,,,-99.99,,2016-02-07 00:13:00,
2016-02-06 16:23:00,51.0,45.0,30.53,SE,135,0.0,0.0,79,-99.99,,,-99.99,,2016-02-07 00:23:00,
2016-02-06 16:33:00,51.0,45.0,30.53,SE,135,0.0,0.0,79,-99.99,,,-99.99,,2016-02-07 00:33:00,
2016-02-06 16:44:00,51.0,45.0,30.52,ESE,112,0.0,0.0,79,-99.99,,,-99.99,,2016-02-07 00:44:00,
2016-02-06 16:53:00,50.0,43.0,30.53,SSE,157,0.0,0.0,78,-99.99,,,-99.99,,2016-02-07 00:53:00,
2016-02-06 17:03:00,50.0,43.0,30.52,East,90,0.0,3.0,78,-99.99,,,-99.99,,2016-02-07 01:03:00,
2016-02-06 17:12:00,50.0,44.0,30.53,SSE,157,0.0,0.0,79,-99.99,,,-99.99,,2016-02-07 01:12:00,
2016-02-06 17:23:00,50.0,44.0,30.53,SSE,157,0.0,0.0,80,-99.99,,,-99.99,,2016-02-07 01:23:00,
2016-02-06 17:34:00,49.0,43.0,30.53,SSE,157,0.0,0.0,80,-99.99,,,-99.99,,2016-02-07 01:34:00,
2016-02-06 17:43:00,49.0,43.0,30.53,South,180,1.0,1.0,80,-99.99,,,-99.99,,2016-02-07 01:43:00,
2016-02-06 17:53:00,49.0,43.0,30.53,SSE,157,0.0,2.0,80,-99.99,,,-99.99,,2016-02-07 01:53:00,
2016-02-06 18:03:00,49.0,43.0,30.53,SSE,157,1.0,1.0,80,-99.99,,,-99.99,,2016-02-07 02:03:00,
2016-02-06 18:12:00,49.0,43.0,30.53,ESE,112,0.0,0.0,80,-99.99,,,-99.99,,2016-02-07 02:12:00,
2016-02-06 18:23:00,48.0,42.0,30.53,SSE,157,0.0,1.0,80,-99.99,,,-99.99,,2016-02-07 02:23:00,
2016-02-06 18:33:00,48.0,42.0,30.53,SSE,157,0.0,0.0,80,-99.99,,,-99.99,,2016-02-07 02:33:00,
2016-02-06 18:43:00,48.0,42.0,30.53,SSE,157,1.0,1.0,81,-99.99,,,-99.99,,2016-02-07 02:43:00,
2016-02-06 18:53:00,48.0,42.0,30.54,SE,135,0.0,0.0,81,-99.99,,,-99.99,,2016-02-07 02:53:00,
2016-02-06 19:03:00,48.0,42.0,30.54,SSE,157,0.0,0.0,81,-99.99,,,-99.99,,2016-02-07 03:03:00,
2016-02-06 19:12:00,48.0,42.0,30.55,SSE,157,0.0,0.0,81,-99.99,,,-99.99,,2016-02-07 03:12:00,
2016-02-06 19:23:00,47.0,41.0,30.54,South,180,0.0,0.0,81,-99.99,,,-99.99,,2016-02-07 03:23:00,
2016-02-06 19:33:00,47.0,41.0,30.53,SSE,157,0.0,0.0,81,-99.99,,,-99.99,,2016-02-07 03:33:00,
2016-02-06 19:53:00,47.0,41.0,30.52,SSE,157,0.0,0.0,81,-99.99,,,-99.99,,2016-02-07 03:53:00,
2016-02-06 20:04:00,47.0,41.0,30.52,South,180,0.0,0.0,81,-99.99,,,-99.99,,2016-02-07 04:04:00,
2016-02-06 20:13:00,47.0,42.0,30.52,SSE,157,0.0,0.0,82,-99.99,,,-99.99,,2016-02-07 04:13:00,